This demonstration page uses our WeatherBlox Daily Observations layout. Learn more.

Left ArrowRight Arrow

44.8408, -93.29828

Hourly Observations for September 15, 2021

Temp ( °F °C ) Dew Point ( °F °C ) Humidity (%) Winds ( mph kmh ) Pressure ( in mb ) Visibility ( mi km ) Precip ( " mm )
12:53 am 00:53 Clear 58 14.4 50 10 75 75 SSW 3 6 29.96 1015 10 16 0.00 0.00
1:53 am 01:53 Clear 58 14.4 49 9.4 72 72 SSW 3 6 29.96 1014 10 16 0.00 0.00
2:53 am 02:53 Clear 56 13.3 49 9.4 77 77 Calm 29.96 1015 10 16 0.00 0.00
3:53 am 03:53 Clear 55 12.8 49 9.4 80 80 Calm 29.97 1015 10 16 0.00 0.00
4:53 am 04:53 Clear 54 12.2 48 8.9 80 80 Calm 29.97 1015 10 16 0.00 0.00
5:53 am 05:53 Clear 53 11.7 48 8.9 83 83 SW 3 6 29.98 1015 10 16 0.00 0.00
6:53 am 06:53 Sunny 52 11.1 47 8.3 83 83 S 3 6 30.00 1016 10 16 0.00 0.00
7:53 am 07:53 Sunny 54 12.2 48 8.9 80 80 SSW 6 9 30.01 1016 10 16 0.00 0.00
8:53 am 08:53 Sunny 58 14.4 49 9.4 72 72 S 6 9 30.01 1016 10 16 0.00 0.00
9:53 am 09:53 Sunny 62 16.7 50 10 65 65 S 3 6 30.02 1017 10 16 0.00 0.00
10:53 am 10:53 Sunny 68 20 47 8.3 47 47 SW 7 11 30.02 1017 10 16 0.00 0.00
11:53 am 11:53 Sunny 71 21.7 48 8.9 44 44 SSW 7 11 30.01 1016 10 16 0.00 0.00
12:53 pm 12:53 Mostly Sunny 75 23.9 48 8.9 39 39 SW 12 19 29.99 1016 10 16 0.00 0.00
1:53 pm 13:53 Mostly Sunny 76 24.4 43 6.1 31 31 SW 10 17 29.97 1015 10 16 0.00 0.00
2:53 pm 14:53 Mostly Sunny 77 25 40 4.4 26 26 SW 10 17 29.95 1014 10 16 0.00 0.00
3:53 pm 15:53 Mostly Cloudy 77 25 41 5 28 28 SSW 8 13 29.93 1014 10 16 0.00 0.00
4:53 pm 16:53 Partly Cloudy 77 25 41 5 28 28 S 12 19 29.91 1013 10 16 0.00 0.00
5:53 pm 17:53 Partly Cloudy 77 25 42 5.6 29 29 S 8 13 29.90 1012 10 16 0.00 0.00
6:53 pm 18:53 Partly Cloudy 74 23.3 45 7.2 36 36 SSE 9 15 29.88 1012 10 16 0.00 0.00
7:53 pm 19:53 Partly Cloudy 70 21.1 46 7.8 42 42 SSE 9 15 29.89 1012 10 16 0.00 0.00
8:53 pm 20:53 Mostly Cloudy 69 20.6 47 8.3 45 45 SSE 12 19 29.90 1013 10 16 0.00 0.00
9:53 pm 21:53 Mostly Cloudy 69 20.6 46 7.8 44 44 SSE 13 20 29.91 1013 10 16 0.00 0.00
10:53 pm 22:53 Mostly Cloudy 70 21.1 46 7.8 42 42 S 15 24 29.92 1013 10 16 0.00 0.00
11:53 pm 23:53 Mostly Cloudy 69 20.6 47 8.3 45 45 S 14 22 29.91 1013 10 16 0.00 0.00

Powered by AerisWeather